2024/01/27 00:00:00,27.3,-0.0
2024/01/27 00:10:00,27.2,-0.0
2024/01/27 00:20:00,27.1, 0.2
2024/01/27 00:30:00,27.1,-0.0
2024/01/27 00:40:00,27.1,-0.0
2024/01/27 00:50:00,27.2, 0.1
2024/01/27 01:00:00,27.3,-0.0
2024/01/27 01:10:00,27.4,-0.1
2024/01/27 01:20:00,27.3,-0.1
2024/01/27 01:30:00,27.3,-0.0
2024/01/27 01:40:00,27.3,-0.3
2024/01/27 01:50:00,27.3, 0.1
2024/01/27 02:00:00,27.2,-0.0
2024/01/27 02:10:00,27.2,-0.0
2024/01/27 02:20:00,27.2,-0.2
2024/01/27 02:30:00,27.0,-0.1
2024/01/27 02:40:00,26.9,-0.1
2024/01/27 02:50:00,26.9, 0.1
2024/01/27 03:00:00,26.8,-0.2
2024/01/27 03:10:00,26.8, 0.2
2024/01/27 03:20:00,26.7, 0.2
2024/01/27 03:30:00,26.6, 0.1
2024/01/27 03:40:00,26.7,-0.3
2024/01/27 03:50:00,26.6,-0.1
2024/01/27 04:00:00,26.6,-0.2
2024/01/27 04:10:00,26.5,-0.2
2024/01/27 04:20:00,26.6,-0.4
2024/01/27 04:30:00,26.5,-0.9
2024/01/27 04:40:00,26.4,-0.8
2024/01/27 04:50:00,26.3,-0.8
2024/01/27 05:00:00,26.4,-0.6
2024/01/27 05:10:00,26.4,-0.3
2024/01/27 05:20:00,26.3,-0.5
2024/01/27 05:30:00,26.2,-0.4
2024/01/27 05:40:00,26.2,-0.6
2024/01/27 05:50:00,26.1,-0.6
2024/01/27 06:00:00,26.1,-0.6
2024/01/27 06:10:00,26.0,-0.6
2024/01/27 06:20:00,25.9,-0.8
2024/01/27 06:30:00,25.9,-0.5
2024/01/27 06:40:00,25.8,-0.6
2024/01/27 06:50:00,25.8,-0.2
2024/01/27 07:00:00,25.8,-0.2
2024/01/27 07:10:00,25.8,-0.5
2024/01/27 07:20:00,25.8,-0.2
2024/01/27 07:30:00,25.8, 0.1
2024/01/27 07:40:00,25.8,-0.1
2024/01/27 07:50:00,25.7,-0.0
2024/01/27 08:00:00,25.7, 0.2
2024/01/27 08:10:00,25.7, 0.2
2024/01/27 08:20:00,25.7, 0.4
2024/01/27 08:30:00,25.4, 0.4
2024/01/27 08:40:00,25.3, 0.6
2024/01/27 08:50:00,25.1, 0.8
2024/01/27 09:00:00,24.9, 1.2
2024/01/27 09:10:00,25.0, 1.4
2024/01/27 09:20:00,24.9, 1.7
2024/01/27 09:30:00,24.8, 1.8
2024/01/27 09:40:00,24.7, 2.2
2024/01/27 09:50:00,24.6, 2.8
2024/01/27 10:00:00,24.5, 3.1
2024/01/27 10:10:00,24.4, 3.3
2024/01/27 10:20:00,24.3, 3.3
2024/01/27 10:30:00,24.3, 3.3
2024/01/27 10:40:00,24.2, 3.8
2024/01/27 10:50:00,24.3, 3.7
2024/01/27 11:00:00,24.3, 3.5
2024/01/27 11:10:00,24.2, 3.3
2024/01/27 11:20:00,23.8, 3.7
2024/01/27 11:30:00,23.9, 3.7
2024/01/27 11:40:00,23.8, 3.7
2024/01/27 11:50:00,23.7, 3.6
2024/01/27 12:00:00,23.6, 3.6
2024/01/27 12:10:00,23.6, 3.1
2024/01/27 12:20:00,23.3, 3.1
2024/01/27 12:30:00,22.7, 3.4
2024/01/27 12:40:00,22.9, 3.6
2024/01/27 12:50:00,22.8, 3.4
2024/01/27 13:00:00,22.6, 4.1
2024/01/27 13:10:00,22.3, 4.6
2024/01/27 13:20:00,22.0, 4.4
2024/01/27 13:30:00,22.1, 3.9
2024/01/27 13:40:00,21.9, 3.9
2024/01/27 13:50:00,22.0, 3.6
2024/01/27 14:00:00,21.7, 3.7
2024/01/27 14:10:00,21.9, 3.2
2024/01/27 14:20:00,21.9, 3.1
2024/01/27 14:30:00,21.8, 2.9
2024/01/27 14:40:00,21.7, 2.8
2024/01/27 14:50:00,21.6, 3.1
2024/01/27 15:00:00,21.6, 2.9
2024/01/27 15:10:00,21.5, 2.6
2024/01/27 15:20:00,21.3, 2.6
2024/01/27 15:30:00,21.5, 2.6
2024/01/27 15:40:00,21.3, 2.2
2024/01/27 15:50:00,21.0, 2.1
2024/01/27 16:00:00,20.6, 2.4
2024/01/27 16:10:00,20.6, 2.7
2024/01/27 16:20:00,20.7, 2.1
2024/01/27 16:30:00,20.8, 2.2
2024/01/27 16:40:00,20.5, 1.9
2024/01/27 16:50:00,20.5, 1.7
2024/01/27 17:00:00,20.4, 1.8
2024/01/27 17:10:00,20.2, 1.6
2024/01/27 17:20:00,20.3, 1.2
2024/01/27 17:30:00,20.6, 1.3
2024/01/27 17:40:00,20.4, 1.2
2024/01/27 17:50:00,20.3, 1.0
2024/01/27 18:00:00,20.1, 1.1
2024/01/27 18:10:00,20.0, 1.0
2024/01/27 18:20:00,19.7, 0.8
2024/01/27 18:30:00,19.5, 0.9
2024/01/27 18:40:00,19.1, 0.6
2024/01/27 18:50:00,18.9, 1.1
2024/01/27 19:00:00,18.8, 1.3
2024/01/27 19:10:00,18.7, 1.1
2024/01/27 19:20:00,18.7, 1.1
2024/01/27 19:30:00,18.7, 0.9
2024/01/27 19:40:00,18.9, 1.0
2024/01/27 19:50:00,18.9, 1.0
2024/01/27 20:00:00,18.6, 1.1
2024/01/27 20:10:00,18.7, 1.3
2024/01/27 20:20:00,18.7, 1.1
2024/01/27 20:30:00,18.5, 1.1
2024/01/27 20:40:00,18.4, 1.2
2024/01/27 20:50:00,18.4, 1.0
2024/01/27 21:00:00,18.4, 0.9
2024/01/27 21:10:00,18.3, 0.9
2024/01/27 21:20:00,18.3, 1.1
2024/01/27 21:30:00,18.2, 1.0
2024/01/27 21:40:00,18.1, 0.9
2024/01/27 21:50:00,18.2, 0.9
2024/01/27 22:00:00,18.2, 0.9
2024/01/27 22:10:00,18.3, 0.9
2024/01/27 22:20:00,18.5, 0.8
2024/01/27 22:30:00,18.4, 0.8
2024/01/27 22:40:00,18.2, 0.9
2024/01/27 22:50:00,18.3, 1.1
2024/01/27 23:00:00,18.3, 0.8
2024/01/27 23:10:00,18.0, 1.0
2024/01/27 23:20:00,17.7, 1.0
2024/01/27 23:30:00,17.7, 1.1
2024/01/27 23:40:00,17.7, 1.0
2024/01/27 23:50:00,17.6, 1.2
